Cooperstown, ND

2:56 PM CDT on July 26, 2017 (GMT -0500)
Cooperstown

Weather History for KS32 - May, 2013

Change the Weather History Date:

Saturday, May 11, 2013

  Actual Average (KJMS) Record (KJMS)
Temperature  
Mean Temperature 40 °F -  
Max Temperature 48 °F 64 °F 92 °F (1900)
Min Temperature 32 °F 41 °F 17 °F (1946)
Degree Days  
Heating Degree Days 25    
Moisture  
Dew Point 26 °F    
Average Humidity 62    
Maximum Humidity 100    
Minimum Humidity 27    
Precipitation  
Precipitation 0.00 in - - ()
Sea Level Pressure  
Sea Level Pressure 30.27 in    
Wind  
Wind Speed 16 mph (NNW)    
Max Wind Speed 28 mph    
Max Gust Speed 36 mph    
Visibility 10 miles    
Events      
Averages and records for this station are not official NWS values.
T = Trace of Precipitation, MM = Missing Value Source: NWS Daily Summary

Daily Weather History Graph

Daily Weather History Graph

Search for Another Location

Airport or City:

Trip Planner

Search our weather history database for the weather conditions in past years. The results will help you decide how hot, cold, wet, or windy it might be!

Date:

Astronomy

May. 11, 2013 Rise Set
Actual Time 6:00 AM CDT 8:57 PM CDT
Civil Twilight 5:24 AM CDT 9:33 PM CDT
Nautical Twilight 4:38 AM CDT 10:20 PM CDT
Astronomical Twilight 3:43 AM CDT 11:16 PM CDT
Moon 7:07 AM CDT (5/11) 10:41 PM CDT (5/11)
Length of Visible Light 16h 09m
Length of Day
14h 57m
Waxing Crescent, 3% of the Moon is Illuminated
May 11
Waxing Crescent
May 17
First Quarter
May 24
Full
May 31
Last Quarter
Jun 8
New

Hourly Weather History & Observations

Time (CDT) Temp. Windchill Dew Point Humidity Pressure Visibility Wind Dir Wind Speed Gust Speed Precip Events Conditions
12:15 AM 32.0 °F 25.6 °F 30.2 °F 93% 30.17 in 10.0 mi NNW 6.9 mph - N/A   Scattered Clouds
12:35 AM 37.4 °F 30.8 °F 32.0 °F 81% 30.18 in 10.0 mi North 9.2 mph - N/A   Mostly Cloudy
12:55 AM 39.2 °F 30.5 °F 32.0 °F 75% 30.19 in 10.0 mi North 16.1 mph - N/A   Scattered Clouds
1:15 AM 39.2 °F 31.6 °F 32.0 °F 75% 30.20 in 10.0 mi North 12.7 mph - N/A   Scattered Clouds
1:35 AM 39.2 °F 29.6 °F 32.0 °F 75% 30.21 in 10.0 mi NNW 19.6 mph 26.5 mph N/A   Mostly Cloudy
1:55 AM 37.4 °F 28.5 °F 35.6 °F 93% 30.21 in 10.0 mi North 15.0 mph - N/A   Partly Cloudy
2:15 AM 35.6 °F 27.1 °F 35.6 °F 100% 30.22 in 10.0 mi NNW 12.7 mph - N/A   Clear
2:35 AM 35.6 °F 27.5 °F 35.6 °F 100% 30.22 in 10.0 mi NNW 11.5 mph - N/A   Clear
2:55 AM 33.8 °F 24.8 °F 33.8 °F 100% 30.22 in 10.0 mi NNW 12.7 mph - N/A   Clear
3:15 AM 33.8 °F 23.9 °F 33.8 °F 100% 30.23 in 10.0 mi NNW 15.0 mph 18.4 mph N/A   Clear
3:35 AM 33.8 °F 23.5 °F 33.8 °F 100% 30.23 in 10.0 mi NNW 16.1 mph 21.9 mph N/A   Clear
3:55 AM 35.6 °F 25.9 °F 35.6 °F 100% 30.24 in 10.0 mi NNW 16.1 mph - N/A   Clear
4:15 AM 35.6 °F 25.5 °F 33.8 °F 93% 30.24 in 10.0 mi NNW 17.3 mph 24.2 mph N/A   Clear
4:35 AM 35.6 °F 25.2 °F 33.8 °F 93% 30.25 in 10.0 mi NNW 18.4 mph 25.3 mph N/A   Clear
4:55 AM 33.8 °F 23.2 °F 32.0 °F 93% 30.26 in 10.0 mi NNW 17.3 mph 25.3 mph N/A   Clear
5:15 AM 32.0 °F 21.2 °F 32.0 °F 100% 30.26 in 10.0 mi NNW 16.1 mph - N/A   Clear
5:35 AM 32.0 °F 20.8 °F 32.0 °F 100% 30.26 in 10.0 mi NNW 17.3 mph - N/A   Clear
5:55 AM 32.0 °F 20.8 °F 32.0 °F 100% 30.26 in 10.0 mi NNW 17.3 mph 23.0 mph N/A   Clear
6:15 AM 32.0 °F 20.5 °F 32.0 °F 100% 30.27 in 10.0 mi NNW 18.4 mph 23.0 mph N/A   Clear
6:35 AM 32.0 °F 20.5 °F 32.0 °F 100% 30.28 in 10.0 mi NNW 18.4 mph 23.0 mph N/A   Clear
6:55 AM 32.0 °F 20.5 °F 32.0 °F 100% 30.29 in 10.0 mi NNW 18.4 mph 24.2 mph N/A   Clear
7:35 AM 33.8 °F 22.8 °F 32.0 °F 93% 30.30 in 10.0 mi NNW 18.4 mph 26.5 mph N/A   Clear
7:55 AM 35.6 °F 24.2 °F 32.0 °F 87% 30.31 in 10.0 mi North 21.9 mph 27.6 mph N/A   Clear
8:15 AM 35.6 °F 23.4 °F 32.0 °F 87% 30.31 in 10.0 mi NNW 25.3 mph 31.1 mph N/A   Clear
8:35 AM 37.4 °F 26.4 °F 32.0 °F 81% 30.32 in 10.0 mi NNW 23.0 mph 31.1 mph N/A   Partly Cloudy
8:55 AM 37.4 °F 26.1 °F 28.4 °F 70% 30.32 in 10.0 mi North 24.2 mph 32.2 mph N/A   Scattered Clouds
9:15 AM 37.4 °F 26.4 °F 26.6 °F 65% 30.31 in 10.0 mi North 23.0 mph 35.7 mph N/A   Partly Cloudy
9:35 AM 37.4 °F 25.4 °F 26.6 °F 65% 30.32 in 10.0 mi North 27.6 mph 33.4 mph N/A   Clear
9:55 AM 39.2 °F 28.0 °F 26.6 °F 61% 30.32 in 10.0 mi North 26.5 mph 33.4 mph N/A   Clear
10:15 AM 39.2 °F 28.3 °F 24.8 °F 56% 30.32 in 10.0 mi North 25.3 mph 34.5 mph N/A   Clear
10:35 AM 39.2 °F 28.3 °F 24.8 °F 56% 30.32 in 10.0 mi NNW 25.3 mph 35.7 mph N/A   Clear
10:55 AM 41.0 °F 30.5 °F 24.8 °F 53% 30.32 in 10.0 mi North 26.5 mph 33.4 mph N/A   Clear
11:15 AM 41.0 °F 30.2 °F 24.8 °F 53% 30.32 in 10.0 mi North 27.6 mph 34.5 mph N/A   Clear
11:35 AM 41.0 °F 31.4 °F 24.8 °F 53% 30.33 in 10.0 mi North 21.9 mph 33.4 mph N/A   Partly Cloudy
11:55 AM 41.0 °F 30.2 °F 23.0 °F 49% 30.33 in 10.0 mi North 27.6 mph 34.5 mph N/A   Partly Cloudy
12:15 PM 42.8 °F 32.7 °F 23.0 °F 46% 30.33 in 10.0 mi North 27.6 mph 32.2 mph N/A   Partly Cloudy
12:35 PM 44.6 °F 35.9 °F 23.0 °F 43% 30.32 in 10.0 mi North 23.0 mph 28.8 mph N/A   Clear
12:55 PM 44.6 °F 36.9 °F 23.0 °F 43% 30.32 in 10.0 mi North 18.4 mph 31.1 mph N/A   Partly Cloudy
1:15 PM 44.6 °F 36.6 °F 23.0 °F 43% 30.31 in 10.0 mi NNW 19.6 mph 29.9 mph N/A   Partly Cloudy
1:35 PM 44.6 °F 36.4 °F 23.0 °F 43% 30.31 in 10.0 mi North 20.7 mph 27.6 mph N/A   Clear
1:55 PM 44.6 °F 35.9 °F 23.0 °F 43% 30.31 in 10.0 mi NNW 23.0 mph 28.8 mph N/A   Clear
2:15 PM 46.4 °F 39.0 °F 21.2 °F 37% 30.31 in 10.0 mi North 19.6 mph 27.6 mph N/A   Clear
2:35 PM 46.4 °F 39.5 °F 19.4 °F 34% 30.30 in 10.0 mi North 17.3 mph 29.9 mph N/A   Clear
2:55 PM 46.4 °F 38.1 °F 21.2 °F 37% 30.29 in 10.0 mi NNW 24.2 mph 31.1 mph N/A   Clear
3:15 PM 46.4 °F 39.0 °F 19.4 °F 34% 30.29 in 10.0 mi NNW 19.6 mph 32.2 mph N/A   Clear
3:35 PM 48.2 °F - 15.8 °F 27% 30.30 in 10.0 mi North 17.3 mph 27.6 mph N/A   Clear
3:55 PM 48.2 °F - 17.6 °F 30% 30.29 in 10.0 mi NNW 20.7 mph 29.9 mph N/A   Clear
4:15 PM 48.2 °F - 17.6 °F 30% 30.28 in 10.0 mi NNW 19.6 mph 28.8 mph N/A   Clear
4:35 PM 48.2 °F - 15.8 °F 27% 30.28 in 10.0 mi North 21.9 mph 29.9 mph N/A   Clear
4:55 PM 48.2 °F - 17.6 °F 30% 30.27 in 10.0 mi NNW 19.6 mph 26.5 mph N/A   Clear
5:15 PM 48.2 °F - 17.6 °F 30% 30.27 in 10.0 mi NNW 13.8 mph 29.9 mph N/A   Clear
5:35 PM 48.2 °F - 17.6 °F 30% 30.27 in 10.0 mi North 15.0 mph 24.2 mph N/A   Clear
5:55 PM 48.2 °F - 19.4 °F 32% 30.27 in 10.0 mi NNW 18.4 mph 26.5 mph N/A   Clear
6:15 PM 48.2 °F - 19.4 °F 32% 30.26 in 10.0 mi NNW 13.8 mph 27.6 mph N/A   Clear
6:35 PM 48.2 °F - 19.4 °F 32% 30.26 in 10.0 mi NNW 16.1 mph 26.5 mph N/A   Clear
6:55 PM 48.2 °F - 19.4 °F 32% 30.25 in 10.0 mi NNW 16.1 mph 21.9 mph N/A   Clear
7:15 PM 48.2 °F - 19.4 °F 32% 30.25 in 10.0 mi NNW 16.1 mph - N/A   Clear
7:35 PM 48.2 °F - 19.4 °F 32% 30.25 in 10.0 mi North 15.0 mph 20.7 mph N/A   Clear
7:55 PM 46.4 °F 39.5 °F 21.2 °F 37% 30.24 in 10.0 mi North 17.3 mph - N/A   Clear
8:15 PM 46.4 °F 40.4 °F 21.2 °F 37% 30.24 in 10.0 mi NNW 13.8 mph - N/A   Clear
8:35 PM 44.6 °F 38.8 °F 21.2 °F 39% 30.24 in 10.0 mi NNW 11.5 mph - N/A   Clear
8:55 PM 44.6 °F 40.2 °F 23.0 °F 43% 30.24 in 10.0 mi NNW 8.1 mph - N/A   Clear
9:15 PM 41.0 °F 36.4 °F 23.0 °F 49% 30.24 in 10.0 mi North 6.9 mph - N/A   Clear
9:35 PM 41.0 °F 37.1 °F 24.8 °F 53% 30.24 in 10.0 mi North 5.8 mph - N/A   Clear
9:55 PM 39.2 °F 34.2 °F 26.6 °F 61% 30.24 in 10.0 mi North 6.9 mph - N/A   Clear
10:15 PM 37.4 °F 30.8 °F 21.2 °F 52% 30.25 in 10.0 mi NE 9.2 mph - N/A   Clear
10:35 PM 35.6 °F 29.9 °F 21.2 °F 56% 30.25 in 10.0 mi ENE 6.9 mph - N/A   Clear
10:55 PM 32.0 °F 25.6 °F 23.0 °F 69% 30.25 in 10.0 mi East 6.9 mph - N/A   Clear
11:15 PM 32.0 °F 25.6 °F 23.0 °F 69% 30.25 in 10.0 mi ENE 6.9 mph - N/A   Clear
11:35 PM 32.0 °F 26.4 °F 23.0 °F 69% 30.25 in 10.0 mi East 5.8 mph - N/A   Clear
11:55 PM 32.0 °F 27.5 °F 23.0 °F 69% 30.25 in 10.0 mi East 4.6 mph - N/A   Clear